1486656000.46,17922,10.69,73822.8,-7.81,-8.93,-8.93,0,*51
1486656001.68,17923,10.69,73826.0,-7.83,-8.85,-8.85,0,*52
1486656002.93,17924,10.69,73826.3,-7.81,-8.81,-8.89,0,*5F
1486656004.16,17925,10.69,73822.0,-7.81,-8.93,-8.93,0,*56
1486656005.43,17926,10.69,73822.3,-7.83,-9.11,-9.11,0,*57
1486656006.66,17927,10.69,73824.0,-7.81,-9.05,-9.05,0,*54
1486656007.89,17928,10.69,73822.5,-7.81,-8.93,-9.01,0,*51
1486656009.13,17929,10.69,73822.8,-7.81,-9.01,-9.01,0,*5A
1486656010.37,17930,10.69,73824.5,-7.83,-9.11,-9.19,0,*58
1486656011.59,17931,10.69,73820.0,-7.81,-9.19,-9.19,0,*53
1486656012.82,17932,10.69,73824.3,-7.83,-9.11,-9.19,0,*5A
1486656014.09,17933,10.69,73822.5,-7.81,-9.15,-9.27,0,*50
1486656015.32,17934,10.69,73824.5,-7.81,-9.05,-9.05,0,*56
1486656016.55,17935,10.69,73822.5,-7.81,-9.01,-9.05,0,*53
1486656017.79,17936,10.63,73822.0,-7.81,-8.89,-8.89,0,*54
1486656019.02,17937,10.69,73822.3,-7.81,-8.89,-8.89,0,*55
1486656020.25,17938,10.69,73822.3,-7.81,-8.93,-8.93,0,*5A
1486656021.46,17939,10.69,73822.8,-7.83,-9.01,-8.93,0,*53
1486656022.7,17940,10.69,73822.8,-7.81,-9.01,-9.01,0,*55
1486656023.91,17941,10.69,73820.3,-7.83,-9.05,-9.05,0,*56
1486656025.15,17942,10.69,73820.5,-7.81,-9.01,-9.01,0,*57
1486656026.35,17943,10.69,73824.0,-7.83,-8.97,-9.05,0,*5E
1486656027.59,17944,10.69,73822.5,-7.81,-9.05,-9.05,0,*51
1486656028.82,17945,10.69,73822.0,-7.81,-9.05,-9.01,0,*54
1486656030.05,17946,10.69,73822.8,-7.81,-9.05,-9.01,0,*57
1486656031.26,17947,10.63,73816.8,-7.83,-9.05,-9.19,0,*5D
1486656032.5,17948,10.69,73818.0,-7.81,-9.01,-9.01,0,*5D
1486656033.76,17949,10.69,73822.5,-7.81,-9.15,-9.27,0,*5D
1486656034.99,17950,10.69,73820.5,-7.83,-9.11,-9.31,0,*54
1486656036.22,17951,10.69,73826.8,-7.83,-9.11,-9.19,0,*5F
1486656037.49,17952,10.69,73822.5,-7.83,-9.11,-9.11,0,*54
1486656038.74,17953,10.69,73820.8,-7.81,-9.05,-9.15,0,*56
1486656039.95,17954,10.69,73820.0,-7.83,-9.05,-9.19,0,*5F
1486656041.2,17955,10.69,73822.0,-7.81,-9.15,-9.19,0,*5D
1486656042.49,17956,10.69,73820.5,-7.81,-9.15,-9.15,0,*52
1486656043.77,17957,10.69,73820.3,-7.81,-9.15,-9.15,0,*53
1486656044.97,17958,10.69,73822.3,-7.83,-9.19,-9.19,0,*5E
1486656046.21,17959,10.69,73820.5,-7.83,-9.19,-9.11,0,*57
1486656047.41,17960,10.69,73820.8,-7.83,-9.31,-9.31,0,*55
1486656048.61,17961,10.69,73818.8,-7.83,-9.23,-9.31,0,*57
1486656049.82,17962,10.69,73822.5,-7.83,-9.19,-9.23,0,*5E
1486656051.1,17963,10.69,73822.8,-7.85,-9.11,-9.11,0,*50
1486656052.3,17964,10.69,73820.8,-7.83,-9.19,-9.23,0,*58
1486656053.54,17965,10.69,73820.5,-7.83,-9.11,-9.19,0,*58
1486656054.74,17966,10.69,73818.0,-7.83,-9.19,-9.23,0,*5A
1486656055.95,17967,10.69,73820.5,-7.83,-9.19,-9.31,0,*58
1486656057.15,17968,10.63,73816.8,-7.83,-9.19,-9.23,0,*54
1486656058.37,17969,10.69,73818.5,-7.85,-9.19,-9.19,0,*5A
1486656059.6,17970,10.69,73824.8,-7.85,-9.19,-9.23,0,*5B
1486656060.85,17971,10.69,73822.3,-7.85,-9.11,-9.19,0,*5B
1486656062.08,17972,10.69,73822.3,-7.85,-9.23,-9.31,0,*53
1486656063.3,17973,10.69,73822.0,-7.85,-9.23,-9.23,0,*51
1486656064.58,17974,10.69,73820.0,-7.85,-9.11,-9.11,0,*56
1486656065.81,17975,10.69,73816.3,-7.85,-9.19,-9.23,0,*5E
1486656067.01,17976,10.69,73820.8,-7.89,-9.23,-9.27,0,*5C
1486656068.23,17977,10.69,73820.3,-7.85,-9.19,-9.23,0,*5C
1486656069.45,17978,10.69,73822.8,-7.85,-9.23,-9.31,0,*59
1486656070.68,17979,10.69,73816.5,-7.89,-9.27,-9.37,0,*56
1486656071.9,17980,10.69,73818.3,-7.85,-9.23,-9.31,0,*5E
1486656073.12,17981,10.69,73820.8,-7.85,-9.31,-9.31,0,*5C
1486656074.38,17982,10.69,73820.3,-7.85,-9.31,-9.37,0,*59
1486656075.63,17983,10.69,73820.0,-7.85,-9.11,-9.23,0,*5F
1486656076.85,17984,10.69,73816.5,-7.85,-9.19,-9.31,0,*53
1486656078.05,17985,10.69,73818.3,-7.89,-9.23,-9.27,0,*50
1486656079.31,17986,10.69,73818.8,-7.85,-9.11,-9.23,0,*5A
1486656080.53,17987,10.69,73812.0,-7.89,-9.15,-9.23,0,*53
1486656081.79,17988,10.69,73818.0,-7.89,-9.15,-9.15,0,*59
1486656083.02,17989,10.69,73814.8,-7.85,-8.97,-9.05,0,*5E
1486656084.27,17990,10.69,73814.0,-7.85,-9.11,-9.19,0,*54
1486656085.5,17991,10.69,73816.3,-7.89,-9.23,-9.37,0,*54
1486656086.75,17992,10.69,73812.0,-7.85,-9.11,-9.31,0,*5C
1486656088.03,17993,10.69,73818.5,-7.85,-9.11,-9.11,0,*5F
1486656089.25,17994,10.69,73816.0,-7.85,-9.23,-9.23,0,*58
1486656090.45,17995,10.69,73812.5,-7.89,-9.23,-9.23,0,*55
1486656091.71,17996,10.69,73818.5,-7.85,-9.05,-9.11,0,*5F
1486656092.96,17997,10.69,73814.5,-7.85,-9.05,-9.11,0,*5E
1486656094.19,17998,10.69,73812.8,-7.89,-9.11,-9.01,0,*59
1486656095.39,17999,10.63,73812.3,-7.89,-9.23,-9.27,0,*5D
1486656096.59,18000,10.69,73816.0,-7.89,-9.23,-9.27,0,*5B
1486656097.79,18001,10.69,73818.0,-7.89,-9.23,-9.27,0,*5A
1486656098.99,18002,10.69,73818.3,-7.89,-9.19,-9.23,0,*54
1486656100.18,18003,10.69,73818.5,-7.89,-9.23,-9.31,0,*5F
1486656101.44,18004,10.69,73812.3,-7.89,-9.15,-9.15,0,*5B
1486656102.67,18005,10.69,73818.8,-7.89,-9.01,-9.15,0,*5F
1486656103.87,18006,10.69,73816.0,-7.89,-9.01,-9.01,0,*59
1486656105.07,18007,10.69,73818.3,-7.89,-9.23,-9.23,0,*58
1486656106.32,18008,10.69,73818.8,-7.85,-9.11,-9.31,0,*59
1486656107.57,18009,10.69,73820.5,-7.89,-9.37,-9.41,0,*57
1486656108.8,18010,10.69,73818.0,-7.85,-9.23,-9.23,0,*52
1486656110.0,18011,10.69,73816.5,-7.89,-9.23,-9.27,0,*5B
1486656111.2,18012,10.69,73816.8,-7.89,-9.23,-9.27,0,*58
1486656112.42,18013,10.69,73818.5,-7.85,-9.23,-9.31,0,*52
1486656113.67,18014,10.69,73816.5,-7.91,-9.37,-9.27,0,*52
1486656114.92,18015,10.69,73816.8,-7.91,-9.27,-9.37,0,*53
1486656116.15,18016,10.69,73818.3,-7.89,-9.37,-9.27,0,*59
1486656117.38,18017,10.69,73818.5,-7.89,-9.27,-9.37,0,*58
1486656118.63,18018,10.69,73816.0,-7.89,-9.41,-9.41,0,*56
1486656119.88,18019,10.69,73818.0,-7.89,-9.37,-9.41,0,*56
1486656121.1,18020,10.69,73816.3,-7.89,-9.27,-9.37,0,*5C
1486656122.3,18021,10.69,73818.3,-7.89,-9.27,-9.27,0,*5C
1486656123.56,18022,10.69,73812.8,-7.91,-9.27,-9.37,0,*57
1486656124.78,18023,10.69,73814.5,-7.91,-9.23,-9.27,0,*53
1486656126.06,18024,10.69,73816.5,-7.91,-9.37,-9.37,0,*50
1486656127.29,18025,10.69,73818.0,-7.91,-9.27,-9.27,0,*51
1486656128.54,18026,10.69,73818.0,-7.93,-9.41,-9.41,0,*50
1486656129.82,18027,10.69,73816.8,-7.91,-9.41,-9.37,0,*52
1486656131.06,18028,10.69,73818.5,-7.93,-9.45,-9.41,0,*5A
1486656132.31,18029,10.69,73818.8,-7.93,-9.41,-9.41,0,*5F
1486656133.51,18030,10.69,73822.3,-7.93,-9.31,-9.27,0,*50
1486656134.79,18031,10.69,73816.8,-7.91,-9.11,-9.11,0,*54
1486656136.01,18032,10.63,73814.0,-7.93,-9.15,-9.05,0,*54
1486656137.24,18033,10.69,73816.8,-7.91,-9.27,-9.31,0,*51
1486656138.46,18034,10.69,73820.3,-7.91,-9.23,-9.27,0,*55
1486656139.74,18035,10.69,73818.3,-7.91,-9.37,-9.37,0,*50
1486656140.93,18036,10.69,73818.0,-7.93,-9.19,-9.31,0,*5B
1486656142.19,18037,10.69,73816.5,-7.91,-9.15,-9.23,0,*57
1486656143.38,18038,10.69,73818.8,-7.93,-9.19,-9.27,0,*52
1486656144.58,18039,10.69,73816.8,-7.93,-9.27,-9.27,0,*5E
1486656145.84,18040,10.69,73820.5,-7.91,-9.15,-9.23,0,*57
1486656147.09,18041,10.69,73816.5,-7.91,-9.11,-9.23,0,*52
1486656148.28,18042,10.69,73816.0,-7.93,-9.27,-9.27,0,*52
1486656149.51,18043,10.69,73820.0,-7.93,-9.27,-9.41,0,*53
1486656150.79,18044,10.69,73816.0,-7.91,-9.37,-9.37,0,*56
1486656151.98,18045,10.69,73818.5,-7.93,-9.31,-9.31,0,*55
1486656153.17,18046,10.69,73820.5,-7.93,-9.19,-9.19,0,*56
1486656154.45,18047,10.69,73818.3,-7.91,-9.15,-9.15,0,*55
1486656155.67,18048,10.69,73816.8,-7.91,-9.23,-9.23,0,*5A
1486656156.87,18049,10.69,73816.8,-7.93,-9.19,-9.19,0,*59
1486656158.12,18050,10.69,73818.3,-7.91,-9.15,-9.27,0,*52
1486656159.41,18051,10.69,73816.0,-7.91,-9.15,-9.15,0,*52
1486656160.68,18052,10.69,73818.8,-7.91,-9.11,-9.15,0,*55
1486656161.97,18053,10.69,73816.3,-7.91,-9.11,-9.11,0,*50
1486656163.22,18054,10.69,73818.8,-7.93,-9.15,-9.15,0,*55
1486656164.41,18055,10.69,73816.3,-7.93,-9.19,-9.19,0,*54
1486656165.6,18056,10.69,73818.3,-7.93,-9.27,-9.19,0,*5A
1486656166.83,18057,10.63,73816.8,-7.91,-9.23,-9.27,0,*50
1486656168.08,18058,10.69,73822.3,-7.93,-9.41,-9.53,0,*5A
1486656169.33,18059,10.69,73820.8,-7.93,-9.41,-9.41,0,*58
1486656170.52,18060,10.69,73822.8,-7.93,-9.31,-9.31,0,*52
1486656171.8,18061,10.69,73822.5,-7.91,-9.37,-9.37,0,*51
1486656172.99,18062,10.69,73822.3,-7.93,-9.31,-9.31,0,*50
1486656174.18,18063,10.69,73816.8,-7.93,-9.19,-9.31,0,*5B
1486656175.37,18064,10.69,73816.3,-7.93,-9.27,-9.31,0,*51
1486656176.59,18065,10.69,73822.5,-7.93,-9.27,-9.41,0,*57
1486656177.81,18066,10.69,73816.8,-7.93,-9.31,-9.41,0,*53
1486656179.01,18067,10.69,73816.8,-7.93,-9.27,-9.27,0,*55
1486656180.23,18068,10.69,73820.5,-7.93,-9.19,-9.41,0,*57
1486656181.47,18069,10.69,73820.0,-7.93,-9.41,-9.41,0,*5B
1486656182.72,18070,10.69,73820.5,-7.93,-9.41,-9.45,0,*57
1486656183.97,18071,10.69,73820.3,-7.93,-9.41,-9.41,0,*52
1486656185.19,18072,10.69,73818.5,-7.93,-9.31,-9.41,0,*56
1486656186.41,18073,10.69,73820.5,-7.93,-9.41,-9.31,0,*57
1486656187.61,18074,10.69,73822.8,-7.93,-9.19,-9.27,0,*5A
1486656188.8,18075,10.69,73822.5,-7.93,-9.27,-9.27,0,*56
1486656189.99,18076,10.69,73822.5,-7.93,-9.27,-9.31,0,*52
1486656191.24,18077,10.69,73818.3,-7.95,-9.27,-9.41,0,*52
1486656192.43,18078,10.69,73822.3,-7.93,-9.27,-9.31,0,*5C
1486656193.62,18079,10.69,73822.0,-7.93,-9.27,-9.27,0,*5A
1486656194.82,18080,10.69,73818.8,-7.93,-9.19,-9.19,0,*5C
1486656196.07,18081,10.69,73822.0,-7.95,-9.15,-9.27,0,*5A
1486656197.33,18082,10.69,73820.0,-7.95,-9.15,-9.27,0,*59
1486656198.52,18083,10.69,73822.3,-7.93,-9.19,-9.27,0,*52
1486656199.75,18084,10.69,73820.3,-7.93,-9.15,-9.27,0,*59
1486656200.98,18085,10.69,73820.5,-7.93,-9.15,-9.27,0,*58
1486656202.2,18086,10.69,73818.3,-7.93,-9.27,-9.41,0,*5A
1486656203.39,18087,10.63,73818.8,-7.93,-9.19,-9.31,0,*51
1486656204.59,18088,10.63,73816.3,-7.93,-9.19,-9.27,0,*59
1486656205.78,18089,10.69,73822.3,-7.93,-9.27,-9.19,0,*58
1486656206.98,18090,10.69,73820.8,-7.93,-9.27,-9.27,0,*5D
1486656208.17,18091,10.69,73820.5,-7.93,-9.19,-9.31,0,*56
1486656209.36,18092,10.63,73818.0,-7.93,-9.27,-9.31,0,*58
1486656210.58,18093,10.69,73818.0,-7.93,-9.27,-9.41,0,*5E
1486656211.8,18094,10.69,73818.3,-7.93,-9.31,-9.41,0,*5E
1486656212.99,18095,10.69,73816.5,-7.93,-9.27,-9.31,0,*5F
1486656214.18,18096,10.63,73816.5,-7.93,-9.27,-9.31,0,*5C
1486656215.4,18097,10.69,73820.8,-7.95,-9.19,-9.27,0,*51
1486656216.63,18098,10.69,73820.3,-7.93,-9.15,-9.27,0,*54
1486656217.82,18099,10.69,73820.0,-7.93,-9.27,-9.27,0,*54
1486656219.05,18100,10.69,73816.8,-7.95,-9.19,-9.27,0,*5E
1486656220.32,18101,10.69,73822.3,-7.95,-9.41,-9.41,0,*52
1486656221.6,18102,10.69,73824.3,-7.95,-9.41,-9.53,0,*52
1486656222.86,18103,10.69,73822.5,-7.97,-9.37,-9.45,0,*57
1486656224.08,18104,10.69,73816.5,-7.95,-9.19,-9.19,0,*57
1486656225.33,18105,10.69,73822.8,-7.95,-9.15,-9.19,0,*5A
1486656226.55,18106,10.69,73822.0,-7.95,-9.19,-9.19,0,*55
1486656227.8,18107,10.69,73818.3,-7.95,-9.31,-9.53,0,*50
1486656229.05,18108,10.69,73820.8,-7.95,-9.27,-9.45,0,*5F
1486656230.28,18109,10.69,73820.0,-7.97,-9.23,-9.37,0,*5D
1486656231.49,18110,10.69,73822.3,-7.95,-9.27,-9.31,0,*55
1486656232.72,18111,10.63,73820.5,-7.95,-9.19,-9.27,0,*5E
1486656233.97,18112,10.69,73822.5,-7.95,-9.15,-9.27,0,*51
1486656235.22,18113,10.69,73822.3,-7.95,-9.27,-9.41,0,*51
1486656236.45,18114,10.69,73820.5,-7.97,-9.31,-9.37,0,*52
1486656237.67,18115,10.69,73824.0,-7.95,-9.27,-9.27,0,*57
1486656238.92,18116,10.69,73820.3,-7.95,-9.27,-9.41,0,*54
1486656240.19,18117,10.69,73826.5,-7.95,-9.41,-9.41,0,*55
1486656241.45,18118,10.69,73820.5,-7.97,-9.37,-9.45,0,*5D
1486656242.66,18119,10.69,73820.8,-7.95,-9.27,-9.31,0,*5C
1486656243.89,18120,10.69,73824.3,-7.97,-9.23,-9.37,0,*56
1486656245.11,18121,10.69,73822.8,-7.95,-9.05,-9.19,0,*5D
1486656246.31,18122,10.69,73820.0,-7.97,-9.19,-9.19,0,*51
1486656247.51,18123,10.69,73822.5,-7.97,-9.19,-9.23,0,*59
1486656248.76,18124,10.69,73822.8,-7.95,-9.15,-9.19,0,*59
1486656249.96,18125,10.69,73822.0,-7.97,-9.19,-9.31,0,*5C
1486656251.18,18126,10.69,73824.0,-7.97,-9.31,-9.45,0,*56
1486656252.43,18127,10.69,73820.0,-7.97,-9.45,-9.45,0,*54
1486656253.68,18128,10.69,73824.0,-7.95,-9.41,-9.31,0,*5E
1486656254.9,18129,10.69,73820.5,-7.95,-9.19,-9.27,0,*55
1486656256.12,18130,10.69,73824.0,-7.95,-9.19,-9.27,0,*5D
1486656257.35,18131,10.69,73822.8,-7.97,-9.31,-9.37,0,*55
1486656258.57,18132,10.69,73824.0,-7.95,-9.27,-9.31,0,*55
1486656259.79,18133,10.69,73824.5,-7.97,-9.23,-9.37,0,*54
1486656261.01,18134,10.69,73822.0,-7.95,-9.19,-9.19,0,*54
1486656262.24,18135,10.69,73822.3,-7.95,-9.19,-9.27,0,*58
1486656263.43,18136,10.69,73822.5,-7.97,-9.31,-9.31,0,*54
1486656264.71,18137,10.69,73822.0,-7.95,-9.45,-9.45,0,*57
1486656265.95,18138,10.69,73820.8,-7.95,-9.31,-9.45,0,*5B
1486656267.21,18139,10.69,73822.3,-7.97,-9.37,-9.49,0,*52
1486656268.42,18140,10.69,73820.0,-7.95,-9.31,-9.31,0,*57
1486656269.68,18141,10.69,73822.5,-7.97,-9.37,-9.45,0,*51
1486656270.9,18142,10.69,73820.8,-7.95,-9.19,-9.19,0,*55
1486656272.09,18143,10.69,73820.8,-7.97,-9.19,-9.23,0,*5F
1486656273.32,18144,10.69,73826.5,-7.97,-9.11,-9.23,0,*50
1486656274.52,18145,10.69,73820.3,-7.97,-9.19,-9.23,0,*59
1486656275.77,18146,10.69,73818.3,-7.97,-9.37,-9.45,0,*56
1486656277.02,18147,10.69,73822.3,-7.97,-9.37,-9.49,0,*5B
1486656278.27,18148,10.63,73818.3,-7.97,-9.45,-9.49,0,*51
1486656279.53,18149,10.69,73822.8,-7.97,-9.37,-9.45,0,*59
1486656280.78,18150,10.69,73824.8,-7.97,-9.37,-9.37,0,*54
1486656281.98,18151,10.69,73820.0,-7.97,-9.23,-9.31,0,*56
1486656283.2,18152,10.69,73822.8,-7.97,-9.31,-9.37,0,*50
1486656284.46,18153,10.69,73822.0,-7.97,-9.37,-9.45,0,*52
1486656285.71,18154,10.69,73822.5,-7.97,-9.45,-9.45,0,*50
1486656286.99,18155,10.69,73822.5,-7.95,-9.41,-9.45,0,*57
1486656288.23,18156,10.63,73820.3,-7.97,-9.45,-9.49,0,*5E
1486656289.49,18157,10.63,73820.5,-7.97,-9.37,-9.49,0,*5A
1486656290.73,18158,10.69,73824.0,-7.97,-9.45,-9.49,0,*50
1486656291.98,18159,10.69,73822.0,-7.97,-9.45,-9.49,0,*51
1486656293.27,18160,10.69,73820.8,-7.99,-9.41,-9.53,0,*5A
1486656294.55,18161,10.69,73820.5,-7.99,-9.49,-9.53,0,*53
1486656295.82,18162,10.69,73822.5,-7.99,-9.49,-9.49,0,*5B
1486656297.11,18163,10.69,73822.8,-7.99,-9.41,-9.49,0,*52
1486656298.39,18164,10.63,73818.5,-7.99,-9.37,-9.37,0,*5D
1486656299.67,18165,10.69,73822.3,-7.99,-9.41,-9.49,0,*54
1486656300.95,18166,10.63,73816.3,-7.99,-9.41,-9.49,0,*57
1486656302.23,18167,10.69,73824.0,-7.99,-9.41,-9.49,0,*56
1486656303.51,18168,10.69,73818.0,-7.99,-9.41,-9.41,0,*51
1486656304.74,18169,10.69,73824.5,-7.99,-9.27,-9.27,0,*50
1486656306.0,18170,10.69,73822.3,-7.99,-9.23,-9.37,0,*5D
1486656307.26,18171,10.69,73820.0,-7.99,-9.15,-9.27,0,*58
1486656308.52,18172,10.69,73824.5,-7.99,-9.15,-9.23,0,*5F
1486656309.78,18173,10.69,73824.3,-7.99,-9.15,-9.23,0,*5E
1486656311.06,18174,10.69,73822.3,-7.99,-9.15,-9.15,0,*5C
1486656312.29,18175,10.69,73824.5,-7.99,-9.27,-9.27,0,*5D
1486656313.55,18176,10.69,73820.3,-7.99,-9.27,-9.37,0,*5F
1486656314.78,18177,10.69,73822.8,-7.99,-9.23,-9.27,0,*5B
1486656316.04,18178,10.63,73818.8,-7.99,-9.23,-9.37,0,*55
1486656317.23,18179,10.69,73826.3,-7.97,-9.23,-9.31,0,*5C
1486656318.43,18180,10.69,73826.3,-7.97,-9.19,-9.23,0,*50
1486656319.62,18181,10.63,73820.3,-7.97,-9.23,-9.31,0,*5B
1486656320.81,18182,10.69,73824.8,-7.97,-9.31,-9.31,0,*5B
1486656322.1,18183,10.63,73820.3,-7.99,-9.37,-9.49,0,*5D
1486656323.35,18184,10.69,73822.0,-7.99,-9.27,-9.41,0,*53
1486656324.61,18185,10.69,73820.0,-7.99,-9.27,-9.37,0,*53
1486656325.89,18186,10.69,73824.0,-7.99,-9.41,-9.41,0,*51
1486656327.17,18187,10.63,73822.3,-7.99,-9.41,-9.41,0,*50
1486656328.4,18188,10.69,73822.8,-7.99,-9.27,-9.27,0,*5F
1486656329.66,18189,10.69,73826.5,-7.99,-9.23,-9.37,0,*5B
1486656330.94,18190,10.69,73824.8,-7.99,-9.37,-9.41,0,*57
1486656332.19,18191,10.63,73822.5,-7.99,-9.27,-9.41,0,*57
1486656333.42,18192,10.63,73820.5,-8.01,-9.27,-9.41,0,*5A
1486656334.68,18193,10.69,73826.0,-7.99,-9.23,-9.37,0,*50
1486656335.93,18194,10.63,73822.0,-7.99,-9.37,-9.27,0,*53
1486656337.19,18195,10.69,73822.3,-7.99,-9.15,-9.27,0,*52
1486656338.43,18196,10.69,73824.0,-8.01,-9.15,-9.23,0,*5B
1486656339.71,18197,10.69,73822.5,-7.99,-9.37,-9.41,0,*50
1486656340.98,18198,10.69,73820.8,-7.99,-9.49,-9.41,0,*56
1486656342.21,18199,10.69,73822.8,-8.01,-9.27,-9.41,0,*51
1486656343.49,18200,10.69,73826.5,-7.99,-9.37,-9.41,0,*5D
1486656344.77,18201,10.69,73826.5,-7.99,-9.37,-9.41,0,*5C
1486656346.03,18202,10.69,73820.0,-7.99,-9.27,-9.37,0,*5F
1486656347.28,18203,10.69,73820.5,-7.99,-9.27,-9.41,0,*5F
1486656348.51,18204,10.69,73822.8,-7.99,-9.23,-9.27,0,*5C
1486656349.77,18205,10.69,73824.8,-8.01,-9.37,-9.37,0,*57
1486656351.05,18206,10.69,73822.3,-7.99,-9.37,-9.37,0,*5A
1486656352.31,18207,10.69,73820.8,-8.01,-9.37,-9.41,0,*54
1486656353.59,18208,10.69,73822.8,-7.99,-9.37,-9.41,0,*55
1486656354.81,18209,10.69,73822.8,-8.01,-9.27,-9.41,0,*5B
1486656356.05,18210,10.69,73820.5,-8.01,-9.27,-9.37,0,*52
1486656357.3,18211,10.69,73824.8,-7.99,-9.27,-9.37,0,*5D
1486656358.58,18212,10.69,73820.5,-7.99,-9.37,-9.41,0,*5E
1486656359.81,18213,10.69,73822.5,-8.01,-9.27,-9.41,0,*50
1486656361.07,18214,10.69,73822.0,-8.01,-9.37,-9.41,0,*56
1486656362.27,18215,10.63,73818.8,-8.01,-9.23,-9.27,0,*52
1486656363.47,18216,10.69,73820.5,-8.01,-9.23,-9.27,0,*51
1486656364.73,18217,10.69,73824.5,-7.99,-9.15,-9.23,0,*5F
1486656365.96,18218,10.69,73822.0,-8.01,-9.15,-9.23,0,*5E
1486656367.19,18219,10.69,73822.8,-8.01,-9.11,-9.23,0,*5B
1486656368.39,18220,10.69,73820.8,-8.01,-9.23,-9.27,0,*54
1486656369.62,18221,10.69,73820.5,-8.01,-9.23,-9.37,0,*54
1486656370.85,18222,10.69,73824.3,-8.01,-9.11,-9.23,0,*53
1486656372.08,18223,10.69,73824.3,-8.01,-9.11,-9.23,0,*52
1486656373.33,18224,10.69,73826.5,-8.01,-9.15,-9.15,0,*54
1486656374.62,18225,10.69,73822.8,-7.99,-9.11,-9.15,0,*5F
1486656375.87,18226,10.69,73826.0,-7.99,-9.15,-9.23,0,*5D
1486656377.13,18227,10.69,73826.5,-7.99,-9.01,-9.15,0,*5C
1486656378.39,18228,10.69,73822.8,-7.99,-9.01,-9.15,0,*53
1486656379.65,18229,10.69,73824.5,-7.99,-9.01,-9.15,0,*52
1486656380.91,18230,10.69,73824.8,-7.99,-9.15,-9.23,0,*5A
1486656382.16,18231,10.69,73822.5,-7.99,-9.23,-9.15,0,*5B
1486656383.41,18232,10.69,73824.3,-8.01,-9.11,-9.15,0,*57
1486656384.64,18233,10.69,73824.8,-7.99,-9.23,-9.23,0,*5C
1486656385.9,18234,10.69,73820.0,-7.99,-9.15,-9.23,0,*5E
1486656387.16,18235,10.69,73816.0,-7.99,-9.15,-9.23,0,*5F
1486656388.42,18236,10.69,73822.5,-7.99,-9.15,-9.27,0,*58
1486656389.68,18237,10.69,73824.0,-7.99,-9.27,-9.37,0,*59
1486656390.94,18238,10.69,73820.5,-7.99,-9.15,-9.27,0,*56
1486656392.22,18239,10.69,73824.0,-7.99,-9.37,-9.37,0,*56
1486656393.48,18240,10.69,73820.0,-7.99,-9.37,-9.27,0,*59
1486656394.73,18241,10.69,73822.8,-8.01,-9.37,-9.37,0,*57
1486656395.99,18242,10.69,73820.8,-8.01,-9.37,-9.37,0,*54
1486656397.22,18243,10.69,73824.8,-8.01,-9.27,-9.37,0,*54
1486656398.45,18244,10.69,73818.8,-7.99,-9.27,-9.27,0,*5C
1486656399.65,18245,10.69,73822.3,-8.01,-9.27,-9.27,0,*53
1486656400.88,18246,10.69,73820.3,-8.01,-9.23,-9.37,0,*55
1486656402.11,18247,10.69,73824.0,-8.01,-9.23,-9.37,0,*54
1486656403.34,18248,10.69,73822.3,-7.99,-9.23,-9.27,0,*54
1486656404.6,18249,10.69,73818.3,-7.99,-9.23,-9.37,0,*54
1486656405.83,18250,10.69,73822.3,-7.99,-9.23,-9.27,0,*5D
1486656407.09,18251,10.69,73820.8,-8.01,-9.15,-9.37,0,*56
1486656408.37,18252,10.69,73820.5,-7.99,-9.11,-9.15,0,*5F
1486656409.6,18253,10.69,73822.5,-8.01,-9.01,-9.11,0,*55
1486656410.86,18254,10.69,73822.5,-8.01,-9.11,-9.15,0,*57
1486656412.09,18255,10.69,73822.0,-8.01,-9.15,-9.27,0,*53
1486656413.38,18256,10.69,73822.3,-7.99,-9.15,-9.15,0,*5F
1486656414.64,18257,10.69,73820.0,-8.01,-9.15,-9.15,0,*50
1486656415.89,18258,10.69,73822.0,-7.99,-9.23,-9.15,0,*54
1486656417.12,18259,10.69,73820.5,-8.01,-9.11,-9.23,0,*5F
1486656418.37,18260,10.69,73818.0,-7.99,-9.11,-9.23,0,*5B
1486656419.63,18261,10.69,73822.0,-8.01,-9.11,-9.15,0,*51
1486656420.88,18262,10.63,73816.8,-7.99,-9.15,-9.23,0,*5D
1486656422.08,18263,10.69,73820.8,-8.01,-9.23,-9.23,0,*57
1486656423.34,18264,10.63,73818.8,-7.99,-9.15,-9.27,0,*5F
1486656424.63,18265,10.69,73822.8,-7.99,-9.15,-9.15,0,*5F
1486656425.91,18266,10.69,73822.3,-7.99,-9.11,-9.15,0,*58
1486656427.16,18267,10.69,73822.8,-7.99,-9.23,-9.15,0,*58
1486656428.39,18268,10.69,73822.8,-7.99,-9.23,-9.23,0,*52
1486656429.65,18269,10.63,73822.3,-7.99,-9.23,-9.37,0,*56
1486656430.88,18270,10.69,73820.8,-8.01,-9.15,-9.23,0,*50
1486656432.14,18271,10.69,73822.5,-8.01,-9.15,-9.15,0,*54
1486656433.42,18272,10.69,73822.3,-7.99,-9.11,-9.11,0,*59
1486656434.65,18273,10.69,73822.8,-8.01,-9.01,-9.11,0,*57
1486656435.91,18274,10.69,73822.5,-7.99,-9.01,-9.11,0,*5E
1486656437.17,18275,10.69,73826.3,-7.99,-9.11,-9.23,0,*5F
1486656438.4,18276,10.63,73822.0,-7.99,-9.23,-9.27,0,*59
1486656439.63,18277,10.69,73822.3,-8.01,-9.15,-9.23,0,*57
1486656440.89,18278,10.69,73820.8,-7.99,-9.23,-9.37,0,*56
1486656442.15,18279,10.69,73822.3,-7.99,-9.23,-9.37,0,*57
1486656443.4,18280,10.69,73826.8,-8.01,-9.37,-9.37,0,*5A
1486656444.66,18281,10.69,73822.8,-7.99,-9.27,-9.37,0,*54
1486656445.86,18282,10.63,73820.3,-8.01,-9.23,-9.27,0,*5C
1486656447.12,18283,10.69,73822.8,-8.01,-9.41,-9.49,0,*51
1486656448.4,18284,10.69,73820.8,-7.99,-9.41,-9.41,0,*50
1486656449.65,18285,10.69,73820.5,-7.99,-9.15,-9.23,0,*54
1486656450.89,18286,10.69,73818.8,-7.99,-9.23,-9.27,0,*56
1486656452.09,18287,10.69,73820.0,-8.01,-9.23,-9.27,0,*59
1486656453.32,18288,10.69,73822.5,-8.01,-9.27,-9.37,0,*53
1486656454.55,18289,10.69,73822.5,-7.99,-9.27,-9.27,0,*5D
1486656455.77,18290,10.69,73820.3,-7.99,-9.23,-9.23,0,*55
1486656457.0,18291,10.69,73820.0,-8.01,-9.23,-9.15,0,*5F
1486656458.23,18292,10.69,73822.3,-8.01,-9.15,-9.23,0,*5C
1486656459.51,18293,10.69,73820.3,-7.99,-9.11,-9.15,0,*52
1486656460.79,18294,10.69,73824.0,-7.99,-9.11,-9.15,0,*55
1486656462.05,18295,10.69,73822.5,-7.99,-9.11,-9.23,0,*51
1486656463.31,18296,10.69,73822.3,-7.99,-9.23,-9.37,0,*56
1486656464.54,18297,10.69,73822.5,-7.99,-9.27,-9.27,0,*52
1486656465.76,18298,10.69,73818.8,-8.01,-9.37,-9.27,0,*52
1486656466.99,18299,10.69,73826.5,-8.01,-9.27,-9.41,0,*52
1486656468.28,18300,10.69,73824.3,-7.99,-9.15,-9.37,0,*5D
1486656469.56,18301,10.69,73824.8,-7.99,-9.15,-9.15,0,*5C
1486656470.79,18302,10.69,73822.3,-7.99,-9.23,-9.23,0,*5F
1486656472.07,18303,10.69,73820.8,-7.99,-9.11,-9.15,0,*5A
1486656473.36,18304,10.69,73822.8,-7.99,-9.11,-9.15,0,*5D
1486656474.58,18305,10.69,73822.5,-8.01,-9.11,-9.23,0,*57
1486656475.84,18306,10.63,73822.3,-7.99,-9.15,-9.23,0,*5E
1486656477.1,18307,10.69,73824.5,-8.01,-9.15,-9.15,0,*54
1486656478.36,18308,10.69,73820.8,-8.01,-9.15,-9.15,0,*5B
1486656479.64,18309,10.69,73826.5,-7.99,-9.11,-9.15,0,*50
1486656480.89,18310,10.69,73826.8,-8.01,-9.11,-9.15,0,*56
1486656482.18,18311,10.69,73822.8,-7.99,-9.11,-9.11,0,*5D
1486656483.38,18312,10.69,73822.8,-8.01,-9.23,-9.23,0,*50
1486656484.61,18313,10.69,73824.8,-7.99,-9.23,-9.27,0,*5B
1486656485.89,18314,10.69,73820.3,-7.99,-9.11,-9.15,0,*5C
1486656487.15,18315,10.69,73822.5,-7.99,-9.01,-9.15,0,*5C
1486656488.4,18316,10.69,73822.3,-7.99,-9.01,-9.15,0,*5F
1486656489.64,18317,10.69,73822.3,-7.99,-9.01,-9.01,0,*5B
1486656490.9,18318,10.69,73820.0,-7.99,-9.01,-9.11,0,*55
1486656492.16,18319,10.69,73824.5,-7.99,-9.01,-9.11,0,*54
1486656493.42,18320,10.69,73822.3,-7.99,-9.15,-9.23,0,*5A
1486656494.68,18321,10.69,73822.5,-7.99,-9.15,-9.23,0,*5B
1486656495.96,18322,10.69,73824.8,-7.99,-9.15,-9.15,0,*5D
1486656497.19,18323,10.69,73826.0,-7.97,-9.11,-9.19,0,*5A
1486656498.42,18324,10.69,73820.3,-8.01,-9.01,-9.15,0,*50
1486656499.71,18325,10.69,73820.3,-7.99,-9.11,-9.11,0,*5A
1486656500.99,18326,10.69,73822.0,-7.99,-9.11,-9.11,0,*59
1486656502.26,18327,10.69,73822.3,-7.99,-9.11,-9.01,0,*59
1486656503.51,18328,10.69,73820.8,-8.01,-9.11,-9.15,0,*5D
1486656504.8,18329,10.69,73818.3,-7.99,-9.15,-9.11,0,*52
1486656506.08,18330,10.69,73822.5,-7.99,-9.15,-9.15,0,*5E
1486656507.36,18331,10.69,73818.5,-7.99,-9.11,-9.15,0,*5B
1486656508.64,18332,10.69,73820.0,-7.99,-9.11,-9.15,0,*58
1486656509.87,18333,10.69,73820.0,-7.99,-9.23,-9.23,0,*5D
1486656511.13,18334,10.69,73822.0,-7.99,-9.15,-9.23,0,*5F
1486656512.39,18335,10.69,73820.0,-7.99,-9.23,-9.37,0,*5E